Back to catalog

SL-16 DEB

AliveLEO
NORAD 39726·DEBRIS·🇷🇺 Russia

Launched Dec 25, 1992 from Baikonur Cosmodrome

Loading…

Next Passes (next 24 hours)

TLE

AgingSource: Space-Track

Epoch: Sep 12, 2026, 06:19 UTC

1 39726U 92093KS  26255.26331196  .00000094  00000-0  10290-3 0  9999
2 39726  71.1561 104.5177 0122749 223.2021 258.6983 13.91369865629641

Track SL-16 DEB in real time with AllMySat

Download on the App Store